Time,TemperatureF,DewpointF,PressureIn,WindDirection,WindDirectionDegrees,WindSpeedMPH,WindSpeedGustMPH,Humidity,HourlyPrecipIn,Conditions,Clouds,dailyrainin,SoftwareType,DateUTC
2013-08-01 00:02:00,63.4,50.6,29.89,ESE,110,0.0,14.0,63,0.00,,---,0.00,VWS V13.00,2013-08-01 06:02:00,
2013-08-01 00:07:00,63.3,50.5,29.89,ESE,119,5.0,14.0,63,0.00,,---,0.00,VWS V13.00,2013-08-01 06:07:00,
2013-08-01 00:12:00,63.2,50.4,29.89,ESE,121,0.0,10.0,63,0.00,,---,0.00,VWS V13.00,2013-08-01 06:12:00,
2013-08-01 00:17:00,63.0,50.7,29.89,ESE,111,0.0,10.0,64,0.00,,---,0.00,VWS V13.00,2013-08-01 06:17:00,
2013-08-01 00:22:00,62.7,50.4,29.89,ESE,106,6.0,10.0,64,0.00,,---,0.00,VWS V13.00,2013-08-01 06:22:00,
2013-08-01 00:27:00,62.5,50.6,29.89,ESE,109,5.0,10.0,65,0.00,,---,0.00,VWS V13.00,2013-08-01 06:27:00,
2013-08-01 00:32:00,62.4,50.5,29.89,ESE,122,0.0,10.0,65,0.00,,---,0.00,VWS V13.00,2013-08-01 06:32:00,
2013-08-01 00:37:00,62.4,50.1,29.88,ESE,114,7.0,11.0,64,0.00,,---,0.00,VWS V13.00,2013-08-01 06:37:00,
2013-08-01 00:42:00,62.5,50.2,29.88,ESE,102,5.0,12.0,64,0.00,,---,0.00,VWS V13.00,2013-08-01 06:42:00,
2013-08-01 00:47:00,62.5,49.8,29.88,ESE,104,4.0,12.0,63,0.00,,---,0.00,VWS V13.00,2013-08-01 06:47:00,
2013-08-01 00:52:00,62.4,50.1,29.88,ESE,102,0.0,12.0,64,0.00,,---,0.00,VWS V13.00,2013-08-01 06:52:00,
2013-08-01 00:57:00,62.0,49.7,29.88,East,101,0.0,12.0,64,0.00,,---,0.00,VWS V13.00,2013-08-01 06:57:00,
2013-08-01 01:02:00,61.6,50.1,29.88,East,98,0.0,12.0,66,0.00,,---,0.00,VWS V13.00,2013-08-01 07:02:00,
2013-08-01 01:07:00,61.3,49.9,29.87,ESE,103,4.0,4.0,66,0.00,,---,0.00,VWS V13.00,2013-08-01 07:07:00,
2013-08-01 01:12:00,61.2,49.8,29.87,ESE,105,8.0,9.0,66,0.00,,---,0.00,VWS V13.00,2013-08-01 07:12:00,
2013-08-01 01:18:00,61.0,49.6,29.87,ESE,107,10.0,10.0,66,0.00,,---,0.00,VWS V13.00,2013-08-01 07:18:00,
2013-08-01 01:23:00,61.1,49.3,29.87,ESE,115,10.0,13.0,65,0.00,,---,0.00,VWS V13.00,2013-08-01 07:23:00,
2013-08-01 01:28:00,61.3,49.5,29.87,ESE,118,4.0,13.0,65,0.00,,---,0.00,VWS V13.00,2013-08-01 07:28:00,
2013-08-01 01:33:00,61.3,49.5,29.87,ESE,114,7.0,14.0,65,0.00,,---,0.00,VWS V13.00,2013-08-01 07:33:00,
2013-08-01 01:38:00,61.1,49.3,29.87,SE,127,4.0,9.0,65,0.00,,---,0.00,VWS V13.00,2013-08-01 07:38:00,
2013-08-01 01:43:00,61.1,48.8,29.87,ESE,110,5.0,9.0,64,0.00,,---,0.00,VWS V13.00,2013-08-01 07:43:00,
2013-08-01 01:48:00,60.9,48.7,29.87,ESE,123,0.0,9.0,64,0.00,,---,0.00,VWS V13.00,2013-08-01 07:48:00,
2013-08-01 01:53:00,60.9,49.1,29.88,ESE,109,0.0,9.0,65,0.00,,---,0.00,VWS V13.00,2013-08-01 07:53:00,
2013-08-01 01:58:00,60.7,48.9,29.88,ESE,107,0.0,9.0,65,0.00,,---,0.00,VWS V13.00,2013-08-01 07:58:00,
2013-08-01 02:03:00,60.4,48.6,29.88,ESE,107,0.0,9.0,65,0.00,,---,0.00,VWS V13.00,2013-08-01 08:03:00,
2013-08-01 02:08:00,60.1,48.7,29.87,ESE,121,10.0,10.0,66,0.00,,---,0.00,VWS V13.00,2013-08-01 08:08:00,
2013-08-01 02:14:00,59.9,48.5,29.87,SE,138,8.0,12.0,66,0.00,,---,0.00,VWS V13.00,2013-08-01 08:14:00,
2013-08-01 02:19:00,59.8,48.4,29.87,ESE,117,0.0,12.0,66,0.00,,---,0.00,VWS V13.00,2013-08-01 08:19:00,
2013-08-01 02:24:00,59.7,48.3,29.86,ESE,115,0.0,12.0,66,0.00,,---,0.00,VWS V13.00,2013-08-01 08:24:00,
2013-08-01 02:29:00,59.5,48.5,29.86,ESE,113,2.0,12.0,67,0.00,,---,0.00,VWS V13.00,2013-08-01 08:29:00,
2013-08-01 02:34:00,59.4,48.5,29.86,SE,128,7.0,12.0,67,0.00,,---,0.00,VWS V13.00,2013-08-01 08:34:00,
2013-08-01 02:39:00,59.3,48.4,29.87,ESE,107,10.0,10.0,67,0.00,,---,0.00,VWS V13.00,2013-08-01 08:39:00,
2013-08-01 02:44:00,59.0,48.5,29.87,ESE,106,3.0,11.0,68,0.00,,---,0.00,VWS V13.00,2013-08-01 08:44:00,
2013-08-01 02:50:00,59.0,48.5,29.87,ESE,106,6.0,11.0,68,0.00,,---,0.00,VWS V13.00,2013-08-01 08:50:00,
2013-08-01 02:56:00,59.0,48.5,29.86,ESE,109,4.0,11.0,68,0.00,,---,0.00,VWS V13.00,2013-08-01 08:56:00,
2013-08-01 03:01:00,58.8,48.3,29.86,ESE,113,2.0,11.0,68,0.00,,---,0.00,VWS V13.00,2013-08-01 09:01:00,
2013-08-01 03:06:00,59.0,48.5,29.86,ESE,110,6.0,11.0,68,0.00,,---,0.00,VWS V13.00,2013-08-01 09:06:00,
2013-08-01 03:11:00,59.0,48.5,29.86,ESE,103,10.0,10.0,68,0.00,,---,0.00,VWS V13.00,2013-08-01 09:11:00,
2013-08-01 03:16:00,59.0,48.5,29.86,SE,126,10.0,11.0,68,0.00,,---,0.00,VWS V13.00,2013-08-01 09:16:00,
2013-08-01 03:21:00,59.0,48.5,29.85,ESE,123,0.0,11.0,68,0.00,,---,0.00,VWS V13.00,2013-08-01 09:21:00,
2013-08-01 03:28:00,59.0,48.1,29.85,SE,134,8.0,11.0,67,0.00,,---,0.00,VWS V13.00,2013-08-01 09:28:00,
2013-08-01 03:33:00,59.0,48.1,29.85,ESE,107,0.0,11.0,67,0.00,,---,0.00,VWS V13.00,2013-08-01 09:33:00,
2013-08-01 03:38:00,59.0,48.1,29.85,ESE,119,4.0,12.0,67,0.00,,---,0.00,VWS V13.00,2013-08-01 09:38:00,
2013-08-01 03:44:00,59.0,48.5,29.85,ESE,111,6.0,12.0,68,0.00,,---,0.00,VWS V13.00,2013-08-01 09:44:00,
2013-08-01 03:49:00,59.0,48.5,29.85,ESE,117,3.0,12.0,68,0.00,,---,0.00,VWS V13.00,2013-08-01 09:49:00,
2013-08-01 03:54:00,58.9,48.4,29.85,ESE,115,6.0,12.0,68,0.00,,---,0.00,VWS V13.00,2013-08-01 09:54:00,
2013-08-01 04:00:00,59.0,48.1,29.85,ESE,109,9.0,12.0,67,0.00,,---,0.00,VWS V13.00,2013-08-01 10:00:00,
2013-08-01 04:05:00,59.0,48.1,29.85,ESE,110,4.0,12.0,67,0.00,,---,0.00,VWS V13.00,2013-08-01 10:05:00,
2013-08-01 04:12:00,59.3,48.0,29.84,ESE,115,4.0,10.0,66,0.00,,---,0.00,VWS V13.00,2013-08-01 10:12:00,
2013-08-01 04:17:00,59.5,48.2,29.84,ESE,107,7.0,10.0,66,0.00,,---,0.00,VWS V13.00,2013-08-01 10:17:00,
2013-08-01 04:22:00,59.8,48.4,29.84,ESE,109,7.0,10.0,66,0.00,,---,0.00,VWS V13.00,2013-08-01 10:22:00,
2013-08-01 04:27:00,59.9,48.1,29.84,ESE,107,4.0,12.0,65,0.00,,---,0.00,VWS V13.00,2013-08-01 10:27:00,
2013-08-01 04:32:00,60.0,48.2,29.84,ESE,105,6.0,12.0,65,0.00,,---,0.00,VWS V13.00,2013-08-01 10:32:00,
2013-08-01 04:37:00,60.0,48.2,29.84,ESE,114,2.0,12.0,65,0.00,,---,0.00,VWS V13.00,2013-08-01 10:37:00,
2013-08-01 04:42:00,60.0,48.2,29.84,ESE,112,0.0,10.0,65,0.00,,---,0.00,VWS V13.00,2013-08-01 10:42:00,
2013-08-01 04:47:00,60.1,48.3,29.84,ESE,106,6.0,11.0,65,0.00,,---,0.00,VWS V13.00,2013-08-01 10:47:00,
2013-08-01 04:53:00,59.9,48.1,29.84,ESE,103,6.0,11.0,65,0.00,,---,0.00,VWS V13.00,2013-08-01 10:53:00,
2013-08-01 04:59:00,59.9,48.1,29.84,ESE,121,5.0,11.0,65,0.00,,---,0.00,VWS V13.00,2013-08-01 10:59:00,
2013-08-01 05:04:00,59.9,48.1,29.84,ESE,118,0.0,11.0,65,0.00,,---,0.00,VWS V13.00,2013-08-01 11:04:00,
2013-08-01 05:09:00,59.8,48.0,29.83,ESE,113,5.0,5.0,65,0.00,,---,0.00,VWS V13.00,2013-08-01 11:09:00,
2013-08-01 05:14:00,59.7,47.9,29.83,ESE,112,4.0,6.0,65,0.00,,---,0.00,VWS V13.00,2013-08-01 11:14:00,
2013-08-01 05:21:00,59.4,47.7,29.83,ESE,105,6.0,7.0,65,0.00,,---,0.00,VWS V13.00,2013-08-01 11:21:00,
2013-08-01 05:27:00,59.8,47.6,29.83,ESE,102,6.0,10.0,64,0.00,,---,0.00,VWS V13.00,2013-08-01 11:27:00,
2013-08-01 05:32:00,59.8,47.6,29.83,East,101,4.0,10.0,64,0.00,,---,0.00,VWS V13.00,2013-08-01 11:32:00,
2013-08-01 05:37:00,59.5,47.7,29.82,East,92,5.0,10.0,65,0.00,,---,0.00,VWS V13.00,2013-08-01 11:37:00,
2013-08-01 05:43:00,59.1,47.4,29.82,East,98,5.0,10.0,65,0.00,,---,0.00,VWS V13.00,2013-08-01 11:43:00,
2013-08-01 05:48:00,59.0,47.7,29.82,East,98,0.0,10.0,66,0.00,,---,0.00,VWS V13.00,2013-08-01 11:48:00,
2013-08-01 05:53:00,58.6,47.7,29.84,East,98,0.0,10.0,67,0.00,,---,0.00,VWS V13.00,2013-08-01 11:53:00,
2013-08-01 05:58:00,58.5,47.6,29.84,ESE,102,3.0,10.0,67,0.00,,---,0.00,VWS V13.00,2013-08-01 11:58:00,
2013-08-01 06:03:00,58.6,47.3,29.84,ESE,121,0.0,10.0,66,0.00,,---,0.00,VWS V13.00,2013-08-01 12:03:00,
2013-08-01 06:08:00,58.5,47.6,29.84,ESE,121,0.0,6.0,67,0.00,,---,0.00,VWS V13.00,2013-08-01 12:08:00,
2013-08-01 06:14:00,58.4,47.5,29.84,SE,130,4.0,12.0,67,0.00,,---,0.00,VWS V13.00,2013-08-01 12:14:00,
2013-08-01 06:19:00,58.4,47.5,29.84,ESE,118,0.0,13.0,67,0.00,,---,0.00,VWS V13.00,2013-08-01 12:19:00,
2013-08-01 06:24:00,58.4,47.5,29.84,ESE,117,0.0,13.0,67,0.00,,---,0.00,VWS V13.00,2013-08-01 12:24:00,
2013-08-01 06:30:00,58.4,47.5,29.84,ESE,102,0.0,13.0,67,0.00,,---,0.00,VWS V13.00,2013-08-01 12:30:00,
2013-08-01 06:35:00,58.3,47.4,29.84,ESE,108,0.0,13.0,67,0.00,,---,0.00,VWS V13.00,2013-08-01 12:35:00,
2013-08-01 06:40:00,58.1,47.6,29.84,SE,125,0.0,0.0,68,0.00,,---,0.00,VWS V13.00,2013-08-01 12:40:00,
2013-08-01 06:45:00,58.4,47.5,29.84,SE,128,0.0,0.0,67,0.00,,---,0.00,VWS V13.00,2013-08-01 12:45:00,
2013-08-01 06:50:00,59.0,48.1,29.84,SE,126,0.0,10.0,67,0.00,,---,0.00,VWS V13.00,2013-08-01 12:50:00,
2013-08-01 06:56:00,59.0,47.7,29.86,ESE,109,0.0,10.0,66,0.00,,---,0.00,VWS V13.00,2013-08-01 12:56:00,
2013-08-01 07:01:00,59.0,47.3,29.86,ESE,109,3.0,10.0,65,0.00,,---,0.00,VWS V13.00,2013-08-01 13:01:00,
2013-08-01 07:07:00,59.1,48.2,29.86,ESE,113,0.0,10.0,67,0.00,,---,0.00,VWS V13.00,2013-08-01 13:07:00,
2013-08-01 07:13:00,59.4,47.7,29.86,ESE,119,0.0,0.0,65,0.00,,---,0.00,VWS V13.00,2013-08-01 13:13:00,
2013-08-01 07:19:00,59.6,48.2,29.86,ESE,116,2.0,8.0,66,0.00,,---,0.00,VWS V13.00,2013-08-01 13:19:00,
2013-08-01 07:24:00,60.1,47.9,29.84,SE,126,6.0,10.0,64,0.00,,---,0.00,VWS V13.00,2013-08-01 13:24:00,
2013-08-01 07:29:00,60.6,48.4,29.84,SE,137,6.0,12.0,64,0.00,,---,0.00,VWS V13.00,2013-08-01 13:29:00,
2013-08-01 07:35:00,61.3,49.0,29.84,ESE,121,4.0,12.0,64,0.00,,---,0.00,VWS V13.00,2013-08-01 13:35:00,
2013-08-01 07:40:00,61.6,48.5,29.84,ESE,115,0.0,10.0,62,0.00,,---,0.00,VWS V13.00,2013-08-01 13:40:00,
2013-08-01 07:45:00,61.8,49.1,29.84,SE,130,6.0,10.0,63,0.00,,---,0.00,VWS V13.00,2013-08-01 13:45:00,
2013-08-01 07:50:00,62.1,49.8,29.84,ESE,111,0.0,10.0,64,0.00,,---,0.00,VWS V13.00,2013-08-01 13:50:00,
2013-08-01 07:55:00,62.5,48.9,29.85,ESE,107,6.0,10.0,61,0.00,,---,0.00,VWS V13.00,2013-08-01 13:55:00,
2013-08-01 08:01:00,63.0,50.2,29.85,ESE,122,0.0,10.0,63,0.00,,---,0.00,VWS V13.00,2013-08-01 14:01:00,
2013-08-01 08:06:00,63.4,50.2,29.85,ESE,110,0.0,10.0,62,0.00,,---,0.00,VWS V13.00,2013-08-01 14:06:00,
2013-08-01 08:12:00,63.7,50.5,29.86,ESE,107,0.0,0.0,62,0.00,,---,0.00,VWS V13.00,2013-08-01 14:12:00,
2013-08-01 08:17:00,64.2,50.5,29.86,East,94,0.0,7.0,61,0.00,,---,0.00,VWS V13.00,2013-08-01 14:17:00,
2013-08-01 08:22:00,64.6,50.4,29.85,ESE,107,5.0,10.0,60,0.00,,---,0.00,VWS V13.00,2013-08-01 14:22:00,
2013-08-01 08:28:00,65.0,51.2,29.85,East,95,0.0,10.0,61,0.00,,---,0.00,VWS V13.00,2013-08-01 14:28:00,
2013-08-01 08:33:00,65.5,49.9,29.85,East,99,5.0,12.0,57,0.00,,---,0.00,VWS V13.00,2013-08-01 14:33:00,
2013-08-01 08:38:00,66.1,48.5,29.85,SE,126,12.0,12.0,53,0.00,,---,0.00,VWS V13.00,2013-08-01 14:38:00,
2013-08-01 08:43:00,66.5,49.8,29.85,ESE,112,7.0,16.0,55,0.00,,---,0.00,VWS V13.00,2013-08-01 14:43:00,
2013-08-01 08:48:00,66.7,49.5,29.85,East,97,9.0,16.0,54,0.00,,---,0.00,VWS V13.00,2013-08-01 14:48:00,
2013-08-01 08:54:00,66.3,49.7,29.86,East,92,4.0,16.0,55,0.00,,---,0.00,VWS V13.00,2013-08-01 14:54:00,
2013-08-01 08:59:00,66.1,49.5,29.86,ESE,118,7.0,16.0,55,0.00,,---,0.00,VWS V13.00,2013-08-01 14:59:00,
2013-08-01 09:04:00,66.1,50.9,29.86,ESE,102,3.0,17.0,58,0.00,,---,0.00,VWS V13.00,2013-08-01 15:04:00,
2013-08-01 09:10:00,66.2,50.5,29.86,SE,125,0.0,7.0,57,0.00,,---,0.00,VWS V13.00,2013-08-01 15:10:00,
2013-08-01 09:15:00,66.1,50.0,29.86,ESE,123,5.0,9.0,56,0.00,,---,0.00,VWS V13.00,2013-08-01 15:15:00,
2013-08-01 09:20:00,65.9,49.8,29.86,ESE,107,4.0,12.0,56,0.00,,---,0.00,VWS V13.00,2013-08-01 15:20:00,
2013-08-01 09:25:00,65.7,50.1,29.87,ESE,109,5.0,13.0,57,0.00,,---,0.00,VWS V13.00,2013-08-01 15:25:00,
2013-08-01 09:30:00,65.6,50.0,29.87,ESE,118,0.0,13.0,57,0.00,,---,0.00,VWS V13.00,2013-08-01 15:30:00,
2013-08-01 09:35:00,65.6,50.0,29.87,SE,134,4.0,13.0,57,0.00,,---,0.00,VWS V13.00,2013-08-01 15:35:00,
2013-08-01 09:41:00,65.4,50.2,29.87,SE,126,0.0,0.0,58,0.00,,---,0.00,VWS V13.00,2013-08-01 15:41:00,
2013-08-01 09:47:00,65.3,50.6,29.87,ESE,115,0.0,0.0,59,0.00,,---,0.00,VWS V13.00,2013-08-01 15:47:00,
2013-08-01 09:52:00,65.3,50.2,29.90,ESE,116,0.0,0.0,58,0.00,,---,0.00,VWS V13.00,2013-08-01 15:52:00,
2013-08-01 09:58:00,65.2,50.5,29.90,ESE,116,0.0,0.0,59,0.00,,---,0.00,VWS V13.00,2013-08-01 15:58:00,
2013-08-01 10:03:00,65.2,51.0,29.90,ESE,116,0.0,0.0,60,0.00,,---,0.00,VWS V13.00,2013-08-01 16:03:00,
2013-08-01 10:09:00,64.9,51.2,29.89,ESE,103,6.0,11.0,61,0.00,,---,0.00,VWS V13.00,2013-08-01 16:09:00,
2013-08-01 10:14:00,64.7,50.5,29.89,East,95,5.0,11.0,60,0.00,,---,0.00,VWS V13.00,2013-08-01 16:14:00,
2013-08-01 10:19:00,64.5,50.3,29.89,East,92,6.0,12.0,60,0.00,,---,0.00,VWS V13.00,2013-08-01 16:19:00,
2013-08-01 10:24:00,64.5,50.3,29.85,East,95,10.0,16.0,60,0.00,,---,0.00,VWS V13.00,2013-08-01 16:24:00,
2013-08-01 10:29:00,64.8,50.2,29.85,East,90,14.0,19.0,59,0.00,,---,0.00,VWS V13.00,2013-08-01 16:29:00,
2013-08-01 10:34:00,65.5,51.3,29.85,ESE,112,13.0,19.0,60,0.00,,---,0.00,VWS V13.00,2013-08-01 16:34:00,
2013-08-01 10:41:00,66.9,51.7,29.84,East,88,9.0,19.0,58,0.00,,---,0.00,VWS V13.00,2013-08-01 16:41:00,
2013-08-01 10:46:00,68.0,51.2,29.84,East,94,21.0,22.0,55,0.00,,---,0.00,VWS V13.00,2013-08-01 16:46:00,
2013-08-01 10:52:00,67.6,50.9,29.82,East,80,15.0,24.0,55,0.00,,---,0.00,VWS V13.00,2013-08-01 16:52:00,
2013-08-01 10:57:00,67.6,50.9,29.82,East,88,13.0,24.0,55,0.00,,---,0.00,VWS V13.00,2013-08-01 16:57:00,
2013-08-01 11:03:00,67.6,50.4,29.82,East,98,12.0,24.0,54,0.00,,---,0.00,VWS V13.00,2013-08-01 17:03:00,
2013-08-01 11:08:00,68.0,50.2,29.83,East,96,14.0,14.0,53,0.00,,---,0.00,VWS V13.00,2013-08-01 17:08:00,
2013-08-01 11:13:00,68.7,50.9,29.83,East,94,12.0,19.0,53,0.00,,---,0.00,VWS V13.00,2013-08-01 17:13:00,
2013-08-01 11:19:00,68.7,51.4,29.83,SE,125,11.0,19.0,54,0.00,,---,0.00,VWS V13.00,2013-08-01 17:19:00,
2013-08-01 11:24:00,68.0,49.7,29.84,ESE,106,11.0,19.0,52,0.00,,---,0.00,VWS V13.00,2013-08-01 17:24:00,
2013-08-01 11:30:00,67.5,51.3,29.84,ESE,105,9.0,19.0,56,0.00,,---,0.00,VWS V13.00,2013-08-01 17:30:00,
2013-08-01 11:36:00,67.2,50.5,29.84,East,92,16.0,19.0,55,0.00,,---,0.00,VWS V13.00,2013-08-01 17:36:00,
2013-08-01 11:41:00,67.0,50.3,29.83,East,86,10.0,15.0,55,0.00,,---,0.00,VWS V13.00,2013-08-01 17:41:00,
2013-08-01 11:46:00,68.0,53.2,29.83,ESE,109,11.0,15.0,59,0.00,,---,0.00,VWS V13.00,2013-08-01 17:46:00,
2013-08-01 11:51:00,68.4,51.1,29.83,ENE,78,7.0,15.0,54,0.00,,---,0.00,VWS V13.00,2013-08-01 17:51:00,
2013-08-01 11:56:00,67.7,50.5,29.85,East,86,10.0,16.0,54,0.00,,---,0.00,VWS V13.00,2013-08-01 17:56:00,
2013-08-01 12:02:00,67.5,51.3,29.85,East,101,12.0,16.0,56,0.00,,---,0.00,VWS V13.00,2013-08-01 18:02:00,
2013-08-01 12:07:00,67.4,50.2,29.86,East,87,9.0,16.0,54,0.00,,---,0.00,VWS V13.00,2013-08-01 18:07:00,
2013-08-01 12:12:00,67.4,51.2,29.86,East,87,11.0,15.0,56,0.00,,---,0.00,VWS V13.00,2013-08-01 18:12:00,
2013-08-01 12:17:00,67.9,51.6,29.86,East,91,9.0,15.0,56,0.00,,---,0.00,VWS V13.00,2013-08-01 18:17:00,
2013-08-01 12:23:00,68.2,50.4,29.85,East,88,5.0,15.0,53,0.00,,---,0.00,VWS V13.00,2013-08-01 18:23:00,
2013-08-01 12:28:00,68.1,50.8,29.85,East,92,6.0,16.0,54,0.00,,---,0.00,VWS V13.00,2013-08-01 18:28:00,
2013-08-01 12:33:00,68.3,51.0,29.85,ENE,72,10.0,16.0,54,0.00,,---,0.00,VWS V13.00,2013-08-01 18:33:00,
2013-08-01 12:38:00,69.0,51.7,29.84,East,82,14.0,15.0,54,0.00,,---,0.00,VWS V13.00,2013-08-01 18:38:00,
2013-08-01 12:43:00,69.5,51.6,29.84,East,86,7.0,16.0,53,0.00,,---,0.00,VWS V13.00,2013-08-01 18:43:00,
2013-08-01 12:49:00,69.5,50.1,29.84,ENE,71,6.0,19.0,50,0.00,,---,0.00,VWS V13.00,2013-08-01 18:49:00,
2013-08-01 12:54:00,70.4,51.4,29.84,ENE,76,11.0,20.0,51,0.00,,---,0.00,VWS V13.00,2013-08-01 18:54:00,
2013-08-01 12:59:00,70.4,50.3,29.84,East,86,12.0,20.0,49,0.00,,---,0.00,VWS V13.00,2013-08-01 18:59:00,
2013-08-01 13:04:00,69.6,50.2,29.84,East,84,9.0,20.0,50,0.00,,---,0.00,VWS V13.00,2013-08-01 19:04:00,
2013-08-01 13:09:00,69.9,52.5,29.85,East,90,3.0,12.0,54,0.00,,---,0.00,VWS V13.00,2013-08-01 19:09:00,
2013-08-01 13:14:00,70.0,50.5,29.85,ENE,74,15.0,18.0,50,0.00,,---,0.00,VWS V13.00,2013-08-01 19:14:00,
2013-08-01 13:19:00,69.8,50.3,29.85,East,83,6.0,18.0,50,0.00,,---,0.00,VWS V13.00,2013-08-01 19:19:00,
2013-08-01 13:25:00,69.8,50.3,29.85,East,80,5.0,18.0,50,0.00,,---,0.00,VWS V13.00,2013-08-01 19:25:00,
2013-08-01 13:30:00,69.5,50.6,29.85,ENE,78,5.0,18.0,51,0.00,,---,0.00,VWS V13.00,2013-08-01 19:30:00,
2013-08-01 13:36:00,69.2,50.8,29.85,ENE,76,10.0,18.0,52,0.00,,---,0.00,VWS V13.00,2013-08-01 19:36:00,
2013-08-01 13:43:00,69.3,51.5,29.83,East,85,13.0,18.0,53,0.00,,---,0.00,VWS V13.00,2013-08-01 19:43:00,
2013-08-01 13:49:00,70.4,51.4,29.83,ENE,71,14.0,18.0,51,0.00,,---,0.00,VWS V13.00,2013-08-01 19:49:00,
2013-08-01 13:54:00,71.2,53.2,29.82,East,94,13.0,19.0,53,0.00,,---,0.00,VWS V13.00,2013-08-01 19:54:00,
2013-08-01 13:59:00,71.8,51.6,29.82,East,82,11.0,20.0,49,0.00,,---,0.00,VWS V13.00,2013-08-01 19:59:00,
2013-08-01 14:04:00,72.3,51.5,29.82,ENE,76,12.0,20.0,48,0.00,,---,0.00,VWS V13.00,2013-08-01 20:04:00,
2013-08-01 14:10:00,72.0,50.7,29.81,ESE,113,15.0,18.0,47,0.00,,---,0.00,VWS V13.00,2013-08-01 20:10:00,
2013-08-01 14:16:00,72.1,50.8,29.81,East,98,20.0,23.0,47,0.00,,---,0.00,VWS V13.00,2013-08-01 20:16:00,
2013-08-01 14:21:00,71.4,50.7,29.81,East,88,8.0,23.0,48,0.00,,---,0.00,VWS V13.00,2013-08-01 20:21:00,
2013-08-01 14:26:00,71.1,50.4,29.81,ENE,74,14.0,23.0,48,0.00,,---,0.00,VWS V13.00,2013-08-01 20:26:00,
2013-08-01 14:32:00,70.8,50.2,29.81,East,82,10.0,23.0,48,0.00,,---,0.00,VWS V13.00,2013-08-01 20:32:00,
2013-08-01 14:37:00,70.5,49.9,29.81,ENE,72,16.0,23.0,48,0.00,,---,0.00,VWS V13.00,2013-08-01 20:37:00,
2013-08-01 14:42:00,71.0,50.3,29.81,ESE,103,12.0,21.0,48,0.00,,---,0.00,VWS V13.00,2013-08-01 20:42:00,
2013-08-01 14:47:00,72.4,51.0,29.81,East,83,12.0,21.0,47,0.00,,---,0.00,VWS V13.00,2013-08-01 20:47:00,
2013-08-01 14:52:00,72.6,50.1,29.79,East,87,16.0,24.0,45,0.00,,---,0.00,VWS V13.00,2013-08-01 20:52:00,
2013-08-01 14:58:00,72.6,50.1,29.79,East,85,11.0,24.0,45,0.00,,---,0.00,VWS V13.00,2013-08-01 20:58:00,
2013-08-01 15:03:00,72.8,50.2,29.79,ESE,111,9.0,24.0,45,0.00,,---,0.00,VWS V13.00,2013-08-01 21:03:00,
2013-08-01 15:08:00,73.0,51.0,29.79,ESE,103,16.0,16.0,46,0.00,,---,0.00,VWS V13.00,2013-08-01 21:08:00,
2013-08-01 15:13:00,73.2,51.2,29.79,East,84,10.0,20.0,46,0.00,,---,0.00,VWS V13.00,2013-08-01 21:13:00,
2013-08-01 15:19:00,73.5,50.3,29.79,ESE,107,18.0,21.0,44,0.00,,---,0.00,VWS V13.00,2013-08-01 21:19:00,
2013-08-01 15:24:00,73.5,50.3,29.78,East,82,9.0,21.0,44,0.00,,---,0.00,VWS V13.00,2013-08-01 21:24:00,
2013-08-01 15:29:00,73.6,51.0,29.78,ESE,115,19.0,24.0,45,0.00,,---,0.00,VWS V13.00,2013-08-01 21:29:00,
2013-08-01 15:34:00,73.4,49.6,29.78,East,99,14.0,24.0,43,0.00,,---,0.00,VWS V13.00,2013-08-01 21:34:00,
2013-08-01 15:40:00,73.6,49.8,29.78,ESE,103,18.0,22.0,43,0.00,,---,0.00,VWS V13.00,2013-08-01 21:40:00,
2013-08-01 15:44:00,73.7,49.8,29.78,East,90,10.0,23.0,43,0.00,,---,0.00,VWS V13.00,2013-08-01 21:44:00,
2013-08-01 15:50:00,73.6,49.8,29.78,East,83,13.0,23.0,43,0.00,,---,0.00,VWS V13.00,2013-08-01 21:50:00,
2013-08-01 15:55:00,73.4,48.9,29.77,ESE,111,17.0,27.0,42,0.00,,---,0.00,VWS V13.00,2013-08-01 21:55:00,
2013-08-01 16:00:00,72.5,48.8,29.77,East,94,22.0,27.0,43,0.00,,---,0.00,VWS V13.00,2013-08-01 22:00:00,
2013-08-01 16:05:00,72.1,49.6,29.77,East,96,3.0,27.0,45,0.00,,---,0.00,VWS V13.00,2013-08-01 22:05:00,
2013-08-01 16:11:00,72.1,50.2,29.77,ENE,63,17.0,19.0,46,0.00,,---,0.00,VWS V13.00,2013-08-01 22:11:00,
2013-08-01 16:16:00,72.1,50.2,29.77,East,92,14.0,20.0,46,0.00,,---,0.00,VWS V13.00,2013-08-01 22:16:00,
2013-08-01 16:21:00,72.0,50.1,29.76,East,88,13.0,22.0,46,0.00,,---,0.00,VWS V13.00,2013-08-01 22:21:00,
2013-08-01 16:27:00,72.1,50.8,29.76,East,92,19.0,22.0,47,0.00,,---,0.00,VWS V13.00,2013-08-01 22:27:00,
2013-08-01 16:32:00,72.0,50.7,29.76,ENE,74,13.0,23.0,47,0.00,,---,0.00,VWS V13.00,2013-08-01 22:32:00,
2013-08-01 16:37:00,71.7,51.0,29.76,ESE,103,17.0,25.0,48,0.00,,---,0.00,VWS V13.00,2013-08-01 22:37:00,
2013-08-01 16:42:00,71.5,51.9,29.76,East,92,10.0,21.0,50,0.00,,---,0.00,VWS V13.00,2013-08-01 22:42:00,
2013-08-01 16:47:00,71.3,51.2,29.76,ENE,78,18.0,26.0,49,0.00,,---,0.00,VWS V13.00,2013-08-01 22:47:00,
2013-08-01 16:52:00,71.2,52.7,29.75,ENE,72,12.0,26.0,52,0.00,,---,0.00,VWS V13.00,2013-08-01 22:52:00,
2013-08-01 16:58:00,70.7,52.8,29.75,ENE,69,21.0,26.0,53,0.00,,---,0.00,VWS V13.00,2013-08-01 22:58:00,
2013-08-01 17:03:00,70.0,52.1,29.75,ENE,75,12.0,26.0,53,0.00,,---,0.00,VWS V13.00,2013-08-01 23:03:00,
2013-08-01 17:08:00,69.6,52.2,29.75,East,87,17.0,20.0,54,0.00,,---,0.00,VWS V13.00,2013-08-01 23:08:00,
2013-08-01 17:13:00,69.4,51.5,29.75,ENE,74,16.0,22.0,53,0.00,,---,0.00,VWS V13.00,2013-08-01 23:13:00,
2013-08-01 17:18:00,69.3,52.0,29.75,East,91,19.0,25.0,54,0.00,,---,0.00,VWS V13.00,2013-08-01 23:18:00,
2013-08-01 17:23:00,69.2,51.4,29.76,East,83,15.0,26.0,53,0.00,,---,0.00,VWS V13.00,2013-08-01 23:23:00,
2013-08-01 17:29:00,69.1,51.8,29.76,East,96,20.0,26.0,54,0.00,,---,0.00,VWS V13.00,2013-08-01 23:29:00,
2013-08-01 17:34:00,69.0,52.2,29.76,ESE,103,15.0,26.0,55,0.00,,---,0.00,VWS V13.00,2013-08-01 23:34:00,
2013-08-01 17:39:00,68.9,51.1,29.74,East,84,22.0,24.0,53,0.00,,---,0.00,VWS V13.00,2013-08-01 23:39:00,
2013-08-01 17:44:00,68.7,49.9,29.74,ESE,103,14.0,29.0,51,0.00,,---,0.00,VWS V13.00,2013-08-01 23:44:00,
2013-08-01 17:49:00,68.6,49.8,29.74,ENE,71,17.0,29.0,51,0.00,,---,0.00,VWS V13.00,2013-08-01 23:49:00,
2013-08-01 17:54:00,68.5,49.2,29.76,ENE,64,15.0,29.0,50,0.00,,---,0.00,VWS V13.00,2013-08-01 23:54:00,
2013-08-01 17:59:00,68.4,48.5,29.76,ENE,76,10.0,29.0,49,0.00,,---,0.00,VWS V13.00,2013-08-01 23:59:00,
2013-08-01 18:04:00,68.3,48.4,29.76,East,92,20.0,29.0,49,0.00,,---,0.00,VWS V13.00,2013-08-02 00:04:00,
2013-08-01 18:09:00,68.2,48.3,29.75,ENE,77,11.0,18.0,49,0.00,,---,0.00,VWS V13.00,2013-08-02 00:09:00,
2013-08-01 18:14:00,68.1,48.2,29.75,East,88,14.0,21.0,49,0.00,,---,0.00,VWS V13.00,2013-08-02 00:14:00,
2013-08-01 18:19:00,68.0,47.6,29.75,East,89,10.0,21.0,48,0.00,,---,0.00,VWS V13.00,2013-08-02 00:19:00,
2013-08-01 18:24:00,68.0,47.6,29.76,ENE,78,9.0,21.0,48,0.00,,---,0.00,VWS V13.00,2013-08-02 00:24:00,
2013-08-01 18:29:00,68.0,48.2,29.76,East,90,7.0,21.0,49,0.00,,---,0.00,VWS V13.00,2013-08-02 00:29:00,
2013-08-01 18:34:00,67.8,48.0,29.76,East,88,7.0,21.0,49,0.00,,---,0.00,VWS V13.00,2013-08-02 00:34:00,
2013-08-01 18:40:00,67.7,48.4,29.77,ENE,78,5.0,12.0,50,0.00,,---,0.00,VWS V13.00,2013-08-02 00:40:00,
2013-08-01 18:45:00,67.8,48.5,29.77,ENE,74,10.0,15.0,50,0.00,,---,0.00,VWS V13.00,2013-08-02 00:45:00,
2013-08-01 18:50:00,67.8,48.0,29.77,East,81,10.0,15.0,49,0.00,,---,0.00,VWS V13.00,2013-08-02 00:50:00,
2013-08-01 18:55:00,67.8,49.0,29.75,East,84,7.0,15.0,51,0.00,,---,0.00,VWS V13.00,2013-08-02 00:55:00,
2013-08-01 19:00:00,67.5,49.8,29.75,ENE,69,5.0,15.0,53,0.00,,---,0.00,VWS V13.00,2013-08-02 01:00:00,
2013-08-01 19:05:00,67.1,49.9,29.75,NE,40,7.0,15.0,54,0.00,,---,0.00,VWS V13.00,2013-08-02 01:05:00,
2013-08-01 19:10:00,66.8,50.6,29.77,NNE,28,0.0,6.0,56,0.00,,---,0.00,VWS V13.00,2013-08-02 01:10:00,
2013-08-01 19:16:00,66.3,53.3,29.77,West,281,0.0,6.0,63,0.01,,---,0.01,VWS V13.00,2013-08-02 01:16:00,
2013-08-01 19:21:00,65.4,52.9,29.77,WSW,248,4.0,9.0,64,0.01,,---,0.01,VWS V13.00,2013-08-02 01:21:00,
2013-08-01 19:27:00,64.5,54.5,29.84,WNW,284,0.0,9.0,70,0.02,,---,0.02,VWS V13.00,2013-08-02 01:27:00,
2013-08-01 19:32:00,63.1,54.3,29.84,NW,305,0.0,9.0,73,0.03,,---,0.03,VWS V13.00,2013-08-02 01:32:00,
2013-08-01 19:37:00,62.4,54.0,29.86,NW,305,0.0,9.0,74,0.03,,---,0.03,VWS V13.00,2013-08-02 01:37:00,
2013-08-01 19:42:00,61.0,54.5,29.86,SSW,203,0.0,0.0,79,0.04,,---,0.04,VWS V13.00,2013-08-02 01:42:00,
2013-08-01 19:48:00,59.3,54.2,29.86,SSE,155,0.0,2.0,83,0.04,,---,0.04,VWS V13.00,2013-08-02 01:48:00,
2013-08-01 19:53:00,58.5,54.7,29.84,East,87,4.0,5.0,87,0.11,,---,0.11,VWS V13.00,2013-08-02 01:53:00,
2013-08-01 19:59:00,57.6,54.1,29.84,ENE,74,4.0,11.0,88,0.12,,---,0.12,VWS V13.00,2013-08-02 01:59:00,
2013-08-01 20:04:00,57.3,53.5,29.84,ENE,62,9.0,16.0,87,0.12,,---,0.12,VWS V13.00,2013-08-02 02:04:00,
2013-08-01 20:09:00,57.2,53.4,29.80,ENE,72,9.0,11.0,87,0.12,,---,0.12,VWS V13.00,2013-08-02 02:09:00,
2013-08-01 20:14:00,57.1,53.3,29.80,ENE,74,6.0,11.0,87,0.12,,---,0.12,VWS V13.00,2013-08-02 02:14:00,
2013-08-01 20:20:00,57.1,53.3,29.80,ENE,64,0.0,11.0,87,0.12,,---,0.12,VWS V13.00,2013-08-02 02:20:00,
2013-08-01 20:25:00,57.1,53.6,29.79,ENE,64,0.0,11.0,88,0.12,,---,0.12,VWS V13.00,2013-08-02 02:25:00,
2013-08-01 20:30:00,57.1,53.6,29.79,ENE,64,0.0,11.0,88,0.12,,---,0.12,VWS V13.00,2013-08-02 02:30:00,
2013-08-01 20:35:00,57.1,53.9,29.79,SW,225,4.0,11.0,89,0.12,,---,0.12,VWS V13.00,2013-08-02 02:35:00,
2013-08-01 20:40:00,57.1,53.9,29.85,SSW,213,0.0,0.0,89,0.09,,---,0.12,VWS V13.00,2013-08-02 02:40:00,
2013-08-01 20:45:00,57.1,53.9,29.85,SSW,213,0.0,0.0,89,0.09,,---,0.12,VWS V13.00,2013-08-02 02:45:00,
2013-08-01 20:51:00,57.1,53.9,29.85,SSW,213,0.0,0.0,89,0.09,,---,0.12,VWS V13.00,2013-08-02 02:51:00,
2013-08-01 20:56:00,56.9,53.7,29.85,SSW,213,0.0,0.0,89,0.09,,---,0.12,VWS V13.00,2013-08-02 02:56:00,
2013-08-01 21:01:00,56.9,53.4,29.85,SW,220,0.0,6.0,88,0.09,,---,0.12,VWS V13.00,2013-08-02 03:01:00,
2013-08-01 21:06:00,56.9,53.4,29.85,SW,220,0.0,6.0,88,0.09,,---,0.12,VWS V13.00,2013-08-02 03:06:00,
2013-08-01 21:11:00,56.9,53.4,29.84,SW,220,0.0,0.0,88,0.00,,---,0.12,VWS V13.00,2013-08-02 03:11:00,
2013-08-01 21:17:00,56.8,53.0,29.84,SW,220,0.0,0.0,87,0.00,,---,0.12,VWS V13.00,2013-08-02 03:17:00,
2013-08-01 21:22:00,56.8,53.0,29.85,SW,219,0.0,0.0,87,0.00,,---,0.12,VWS V13.00,2013-08-02 03:22:00,
2013-08-01 21:28:00,56.6,52.8,29.85,SW,219,0.0,0.0,87,0.00,,---,0.12,VWS V13.00,2013-08-02 03:28:00,
2013-08-01 21:33:00,56.2,52.7,29.85,SE,128,4.0,5.0,88,0.00,,---,0.12,VWS V13.00,2013-08-02 03:33:00,
2013-08-01 21:38:00,55.8,52.9,29.84,SE,128,0.0,0.0,90,0.00,,---,0.12,VWS V13.00,2013-08-02 03:38:00,
2013-08-01 21:43:00,55.5,52.6,29.84,SE,129,0.0,0.0,90,0.00,,---,0.12,VWS V13.00,2013-08-02 03:43:00,
2013-08-01 21:48:00,55.3,52.7,29.84,SE,129,0.0,0.0,91,0.00,,---,0.12,VWS V13.00,2013-08-02 03:48:00,
2013-08-01 21:53:00,55.2,52.3,29.85,SE,129,0.0,0.0,90,0.00,,---,0.12,VWS V13.00,2013-08-02 03:53:00,
2013-08-01 21:59:00,54.8,51.9,29.85,SE,145,0.0,0.0,90,0.00,,---,0.12,VWS V13.00,2013-08-02 03:59:00,
2013-08-01 22:01:00,54.6,51.7,29.85,SE,145,0.0,0.0,90,0.00,,---,0.12,VWS V13.00,2013-08-02 04:01:00,
2013-08-01 22:07:00,54.2,51.6,29.80,SSE,153,6.0,6.0,91,0.00,,---,0.12,VWS V13.00,2013-08-02 04:07:00,
2013-08-01 22:12:00,54.1,51.5,29.80,SSE,153,6.0,6.0,91,0.00,,---,0.12,VWS V13.00,2013-08-02 04:12:00,
2013-08-01 22:15:00,54.1,51.8,29.80,SSE,153,5.0,7.0,92,0.00,,---,0.12,VWS V13.00,2013-08-02 04:15:00,
2013-08-01 22:16:00,54.1,51.8,29.80,SSE,153,6.0,7.0,92,0.00,,---,0.12,VWS V13.00,2013-08-02 04:16:00,
2013-08-01 22:21:00,54.0,51.7,29.80,SSE,152,5.0,8.0,92,0.00,,---,0.12,VWS V13.00,2013-08-02 04:21:00,
2013-08-01 22:26:00,53.8,51.5,29.85,SSE,153,5.0,8.0,92,0.00,,---,0.12,VWS V13.00,2013-08-02 04:26:00,
2013-08-01 22:31:00,53.7,51.7,29.85,SSE,150,6.0,8.0,93,0.00,,---,0.12,VWS V13.00,2013-08-02 04:31:00,
2013-08-01 22:36:00,53.5,51.5,29.85,SSE,151,4.0,8.0,93,0.00,,---,0.12,VWS V13.00,2013-08-02 04:36:00,
2013-08-01 22:41:00,53.4,51.4,29.86,SSE,150,6.0,7.0,93,0.00,,---,0.12,VWS V13.00,2013-08-02 04:41:00,
2013-08-01 22:46:00,53.4,51.4,29.86,SSE,150,6.0,7.0,93,0.00,,---,0.12,VWS V13.00,2013-08-02 04:46:00,
2013-08-01 22:51:00,53.3,51.3,29.86,SSE,150,5.0,7.0,93,0.00,,---,0.12,VWS V13.00,2013-08-02 04:51:00,
2013-08-01 22:56:00,53.4,51.4,29.86,SSE,150,5.0,7.0,93,0.00,,---,0.12,VWS V13.00,2013-08-02 04:56:00,
2013-08-01 23:01:00,53.3,51.3,29.86,SE,141,5.0,8.0,93,0.00,,---,0.12,VWS V13.00,2013-08-02 05:01:00,
2013-08-01 23:06:00,53.4,51.4,29.86,SE,138,8.0,9.0,93,0.00,,---,0.12,VWS V13.00,2013-08-02 05:06:00,
2013-08-01 23:11:00,53.3,51.3,29.86,SE,138,6.0,7.0,93,0.00,,---,0.12,VWS V13.00,2013-08-02 05:11:00,
2013-08-01 23:16:00,53.4,51.4,29.86,SE,139,6.0,7.0,93,0.00,,---,0.12,VWS V13.00,2013-08-02 05:16:00,
2013-08-01 23:21:00,53.5,51.5,29.86,SE,137,5.0,7.0,93,0.00,,---,0.12,VWS V13.00,2013-08-02 05:21:00,
2013-08-01 23:26:00,53.6,51.6,29.86,SE,136,0.0,7.0,93,0.00,,---,0.12,VWS V13.00,2013-08-02 05:26:00,
2013-08-01 23:31:00,53.8,51.8,29.86,SE,129,0.0,7.0,93,0.00,,---,0.12,VWS V13.00,2013-08-02 05:31:00,
2013-08-01 23:36:00,54.0,52.0,29.86,SE,140,0.0,7.0,93,0.00,,---,0.12,VWS V13.00,2013-08-02 05:36:00,
2013-08-01 23:41:00,54.0,51.7,29.86,SE,138,0.0,0.0,92,0.00,,---,0.00,VWS V13.00,2013-08-02 05:41:00,
2013-08-01 23:46:00,54.0,51.7,29.86,SE,135,0.0,0.0,92,0.00,,---,0.00,VWS V13.00,2013-08-02 05:46:00,
2013-08-01 23:51:00,54.0,51.7,29.86,SE,130,0.0,0.0,92,0.00,,---,0.00,VWS V13.00,2013-08-02 05:51:00,
2013-08-01 23:56:00,54.0,51.7,29.78,SE,130,0.0,0.0,92,0.00,,---,0.00,VWS V13.00,2013-08-02 05:56:00,